Weather History for Mobile, AL

Change the Weather History Date:

Monday, January 6, 2014

  Actual Average Record
Temperature  
Mean Temperature 32 °F 50 °F  
Max Temperature 42 °F 61 °F 77 °F (1936)
Min Temperature 21 °F 40 °F 14 °F (1924)
Degree Days  
Heating Degree Days 33 15  
Month to date heating degree days 131 90  
Since 1 July heating degree days 809 752  
Cooling Degree Days 0 0  
Month to date cooling degree days 0 0  
Year to date cooling degree days 0 0  
Moisture  
Dew Point 12 °F    
Average Humidity 59    
Maximum Humidity 89    
Minimum Humidity 29    
Precipitation  
Precipitation 0.00 in 0.18 in 1.91 in (1920)
Month to date precipitation 1.06 1.01  
Year to date precipitation 1.06 1.01  
Snow  
Snow 0.00 in 0.00 in 0.00 in (2002)
Month to date snowfall 0.0 0.0  
Since 1 July snowfall 0.0 T  
Snow Depth 0.00 in    
Sea Level Pressure  
Sea Level Pressure 30.40 in    
Wind  
Wind Speed 16 mph (NNW)    
Max Wind Speed 30 mph    
Max Gust Speed 40 mph    
Visibility 10 miles    
Events      
T = Trace of Precipitation, MM = Missing Value Source: NWS Daily Summary

Daily Weather History Graph

Daily Weather History Graph

Search for Another Location

Airport:

Trip Planner

Search our weather history database for the weather conditions in past years. The results will help you decide how hot, cold, wet, or windy it might be!

Date:

Astronomy

Jan. 06, 2014 Rise Set
Actual Time 6:51 AM CST 5:06 PM CST
Civil Twilight 6:24 AM CST 5:33 PM CST
Nautical Twilight 5:55 AM CST 6:02 PM CST
Astronomical Twilight 5:25 AM CST 6:32 PM CST
Moon 10:32 AM CST (1/6) 11:11 PM CST (1/6)
Length of Visible Light 11h 08m
Length of Day
10h 15m
Waxing Crescent, 35% of the Moon is Illuminated
Jan 6
Waxing Crescent
Jan 7
First Quarter
Jan 15
Full
Jan 23
Last Quarter
Jan 30
New

Hourly Weather History & Observations

Time (CST) Temp. Windchill Dew Point Humidity Pressure Visibility Wind Dir Wind Speed Gust Speed Precip Events Conditions
12:56 AM 37.0 °F 25.9 °F 33.1 °F 86% 30.09 in 10.0 mi NNW 23.0 mph 32.2 mph N/A   Overcast
1:56 AM 34.0 °F 20.8 °F 30.0 °F 85% 30.13 in 10.0 mi NNW 27.6 mph 35.7 mph N/A   Overcast
2:56 AM 32.0 °F 20.1 °F 26.1 °F 79% 30.17 in 10.0 mi NNW 19.6 mph 33.4 mph N/A   Overcast
3:56 AM 30.9 °F 18.4 °F 24.1 °F 76% 30.20 in 10.0 mi NNW 20.7 mph 31.1 mph N/A   Overcast
4:56 AM 30.0 °F 16.6 °F 23.0 °F 75% 30.24 in 10.0 mi NNW 23.0 mph 33.4 mph N/A   Overcast
5:56 AM 28.9 °F 16.9 °F 19.9 °F 69% 30.28 in 10.0 mi NNW 17.3 mph 31.1 mph N/A   Overcast
6:33 AM 28.0 °F 14.3 °F 19.9 °F 72% 30.30 in 10.0 mi North 21.9 mph 31.1 mph N/A   Mostly Cloudy
6:56 AM 27.0 °F 13.9 °F 19.9 °F 75% 30.32 in 10.0 mi North 18.4 mph - N/A   Scattered Clouds
7:56 AM 27.0 °F 14.7 °F 18.0 °F 69% 30.37 in 10.0 mi North 16.1 mph 29.9 mph N/A   Scattered Clouds
8:56 AM 30.0 °F 19.1 °F 19.0 °F 64% 30.40 in 10.0 mi NNW 15.0 mph 27.6 mph N/A   Mostly Cloudy
9:56 AM 30.9 °F 20.7 °F 17.1 °F 57% 30.43 in 10.0 mi NW 13.8 mph 29.9 mph N/A   Mostly Cloudy
10:56 AM 34.0 °F 23.4 °F 16.0 °F 48% 30.44 in 10.0 mi North 17.3 mph - N/A   Mostly Cloudy
11:56 AM 33.1 °F 20.9 °F 10.0 °F 38% 30.42 in 10.0 mi North 21.9 mph 25.3 mph N/A   Mostly Cloudy
12:56 PM 34.0 °F 24.6 °F 8.1 °F 34% 30.41 in 10.0 mi NW 13.8 mph 20.7 mph N/A   Scattered Clouds
1:56 PM 35.1 °F 26.4 °F 6.1 °F 30% 30.42 in 10.0 mi NW 12.7 mph 25.3 mph N/A   Scattered Clouds
2:56 PM 34.0 °F 23.8 °F 6.1 °F 31% 30.43 in 10.0 mi NW 16.1 mph 23.0 mph N/A   Scattered Clouds
3:56 PM 32.0 °F 22.5 °F 3.9 °F 31% 30.45 in 10.0 mi NW 12.7 mph - N/A   Mostly Cloudy
4:56 PM 28.9 °F 19.2 °F -0.0 °F 29% 30.48 in 10.0 mi NW 11.5 mph 21.9 mph N/A   Mostly Cloudy
5:56 PM 27.0 °F 18.0 °F 1.0 °F 33% 30.49 in 10.0 mi NW 9.2 mph - N/A   Mostly Cloudy
6:56 PM 26.1 °F 15.6 °F 1.0 °F 34% 30.53 in 10.0 mi NW 11.5 mph - N/A   Mostly Cloudy
7:56 PM 25.0 °F 14.8 °F 1.0 °F 36% 30.57 in 10.0 mi NW 10.4 mph - N/A   Mostly Cloudy
8:56 PM 25.0 °F 14.2 °F 1.9 °F 37% 30.57 in 10.0 mi NW 11.5 mph - N/A   Mostly Cloudy
9:56 PM 23.0 °F 11.1 °F 1.9 °F 40% 30.58 in 10.0 mi NNW 12.7 mph - N/A   Mostly Cloudy
10:56 PM 21.9 °F 9.8 °F 1.0 °F 40% 30.58 in 10.0 mi NNW 12.7 mph 20.7 mph N/A   Scattered Clouds
11:56 PM 21.0 °F 8.1 °F 1.9 °F 44% 30.58 in 10.0 mi NNW 13.8 mph - N/A   Clear